OBJECT N

基本信息
目录编号:
57178
目录名称:
OBJECT N
国际标识:
2023-091N
轨道中心:
EARTH
物体状态:
在轨
发射日期:
2023-06-27 UTC
国别:
(TBD)
轨道信息
数据来源: 国际轨道数据
星历时间: 2026-09-02T21:38:42+0800
半长轴: 6845.208km
偏心率: 0.0010531
轨道倾角: 97.502°
近地点辐角: 169.398°
升交点赤经: 312.202°
平近点角: 190.749°
近地点: 459.862km
远地点: 474.28km
周期: 93.938分钟
每日圈数: 15.329319
详细信息
发射场:
VOSTO
轨道高度:
LEO
数据来源:
AOE Integration Group
参考系:
TEME
时间系统:
UTC
历元类型:
SGP4
2D轨道图
3D轨道图
轨道高度分析图
轨道倾角分析图
轨道综合分析图
查看轨道综合分析图